Regional Weather Roundup
Issued by NWS

Home | Current Version | Previous Version | Graphics & Text | Print | Product List | Glossary On
Versions: 1 2 3 4 5 6 7 8 9 10 11 12 13 14 15 16 17 18 19 20 21 22 23 24 25 26 27 28 29 30 31 32 33 34 35 36 37 38 39 40 41 42 43 44 45 46 47 48 49 50
000
ASUS45 KCYS 050110
RWRWY

WYOMING REGIONAL WEATHER ROUNDUP
NATIONAL WEATHER SERVICE CHEYENNE WY
700 PM MDT SAT JUL 04 2015

NOTE:  "FAIR" INDICATES FEW OR NO CLOUDS BELOW 12,000 FEET
WITH NO SIGNIFICANT WEATHER AND/OR OBSTRUCTIONS TO VISIBILITY.

WYZ001-050200-
YELLOWSTONE NATIONAL PARK

CITY           SKY/WX    TMP DP  RH WIND       PRES   REMARKS
LK YELLOWSTONE   N/A     77  35  21 CALM      30.15S
W YELLOWSTONE  NOT AVBL

$$
WYZ002>013-054>058-071-098>099-050200-
NORTHERN WYOMING

CITY           SKY/WX    TMP DP  RH WIND       PRES   REMARKS
JACKSON        FAIR      82  36  18 SW8       30.02S
CODY           FAIR      91  43  18 NE6       29.86S
GREYBULL       FAIR      97  32  10 SW3       29.74F HX  91
WORLAND        FAIR      91  48  22 NW3       29.78F
SHERIDAN       FAIR      93  48  21 CALM      29.79F
BUFFALO        FAIR      88  52  29 N6        29.88F
GILLETTE       FAIR      87  48  25 SE10      29.83F
HULETT         FAIR      86  54  32 E5        29.86S
NEWCASTLE      FAIR      88  43  20 N3        29.85S

$$
WYZ014>020-022>026-101>103-050200-
CENTRAL WYOMING

CITY           SKY/WX    TMP DP  RH WIND       PRES   REMARKS
BIG PINEY      FAIR      83  36  18 NW14      30.07S
PINEDALE       FAIR      82  34  17 W15G21    30.08R
DUBOIS         FAIR      82  32  16 NW12G17   30.04S
LANDER         FAIR      93  42  17 E3        29.87S
RIVERTON       FAIR      93  37  14 E6        29.87F
CASPER         FAIR      91  43  18 NE14      29.89S
DOUGLAS        FAIR      86  54  33 E12       29.90R

$$
WYZ021-027>030-104>119-050200-
SOUTHERN WYOMING

CITY           SKY/WX    TMP DP  RH WIND       PRES   REMARKS
EVANSTON       CLOUDY    80  48  32 E9        30.11R
KEMMERER       FAIR     N/A N/A N/A NW14G20   30.11S
FORT BRIDGER   CLOUDY    75  50  41 S17       30.12F
ROCK SPRINGS   FAIR      83  44  25 SW23G31   30.05S
DIXON          DRIZZLE   78  45  31 SW20G26   30.09S
RAWLINS        FAIR      83  42  23 SW15      30.02S
SARATOGA       MOCLDY    79  43  27 SE12      30.08F
LARAMIE        FAIR      77  43  29 SW15      30.08F
CHEYENNE       PTSUNNY   82  49  31 W9        30.00S
TORRINGTON     FAIR      83  54  36 E22G30    29.83R
PINE BLUFFS    FAIR      82  48  30 SE6       29.94S

$$


USA.gov is the U.S. government's official web portal to all federal, state and local government web resources and services.